DW5160 Weather Reports


time (UTC)temp
F
wind
direction
speed
knots
gust
knots
rain 1hr
in
rain 24hr
in
rain mn
in
humidity
%
barometer
mb
20260508023058 41 301 0.0 0.0 0.00 0.00 0.00 76 1013.5
20260508021558 43 301 0.0 0.0 0.00 0.00 0.00 75 1013.4
20260508020106 44 301 0.0 0.0 0.00 0.00 0.00 74 1013.3
20260508014615 45 301 0.0 0.0 0.00 0.00 0.00 72 1013.1
20260508013100 47 302 0.0 0.0 0.00 0.00 0.00 70 1013.0
20260508011604 49 301 0.0 0.0 0.00 0.00 0.00 64 1012.8
20260508010059 50 302 0.0 0.0 0.00 0.00 0.00 64 1012.6
20260508004556 52 301 0.0 0.0 0.00 0.00 0.00 57 1012.4
20260508003055 53 306 0.0 3.5 0.00 0.00 0.00 54 1012.2
20260508001559 54 325 0.0 7.8 0.00 0.00 0.00 52 1012.0
20260508000055 54 267 0.9 7.8 0.00 0.00 0.00 52 1011.9
20260507234553 55 283 0.0 6.1 0.00 0.00 0.00 50 1011.5
20260507233052 56 349 2.6 11.3 0.00 0.00 0.00 48 1011.4
20260507231552 56 285 0.9 12.2 0.00 0.00 0.00 45 1011.3
20260507230053 57 297 5.2 13.9 0.00 0.00 0.00 43 1011.1
20260507224551 57 265 4.3 12.2 0.00 0.00 0.00 41 1011.0
20260507223051 59 275 3.5 10.4 0.00 0.00 0.00 40 1010.8
20260507221550 59 303 1.7 12.2 0.00 0.00 0.00 40 1010.7
20260507220050 60 271 0.0 15.6 0.00 0.00 0.00 39 1010.5
20260507214550 61 292 3.5 10.4 0.00 0.00 0.00 39 1010.3
20260507213049 60 277 1.7 8.7 0.00 0.00 0.00 41 1010.0
20260507211553 60 303 0.0 13.0 0.00 0.00 0.00 40 1010.3
20260507210048 60 277 2.6 10.4 0.00 0.00 0.00 41 1010.0
20260507204547 61 340 0.9 7.8 0.00 0.00 0.00 41 1010.1
20260507203048 60 315 0.9 12.2 0.00 0.00 0.00 40 1010.2
20260507201546 60 291 2.6 11.3 0.00 0.00 0.00 38 1010.1
20260507200045 60 283 2.6 11.3 0.00 0.00 0.00 40 1010.3
20260507194546 60 349 1.7 11.3 0.00 0.00 0.00 41 1010.5
20260507193042 60 291 2.6 10.4 0.00 0.00 0.00 39 1010.6
20260507191542 60 279 1.7 9.6 0.00 0.00 0.00 41 1010.5
20260507190041 61 284 0.0 7.8 0.00 0.00 0.00 41 1010.4
20260507184540 62 278 1.7 9.6 0.00 0.00 0.00 40 1010.6
20260507183045 61 208 1.7 9.6 0.00 0.00 0.00 40 1010.7
20260507181539 59 266 0.0 10.4 0.00 0.00 0.00 45 1010.9
20260507180036 59 336 0.0 10.4 0.00 0.00 0.00 41 1010.9
20260507174531 60 248 0.9 6.1 0.00 0.00 0.00 44 1011.0
20260507173029 59 285 2.6 9.6 0.00 0.00 0.00 44 1011.3
20260507171527 60 204 0.9 7.8 0.00 0.00 0.00 47 1011.2
20260507170026 58 279 3.5 9.6 0.00 0.00 0.00 44 1011.5
20260507164524 59 258 0.9 7.0 0.00 0.00 0.00 46 1011.5
20260507163020 58 279 0.9 7.0 0.00 0.00 0.00 49 1011.6
20260507161521 58 236 0.0 7.0 0.00 0.00 0.00 49 1011.6
20260507160033 55 274 0.0 7.0 0.00 0.00 0.00 51 1011.8
20260507154514 55 277 1.7 7.8 0.00 0.00 0.00 51 1012.1
20260507153010 56 234 0.0 4.3 0.00 0.00 0.00 50 1012.1
20260507151508 56 246 0.0 7.0 0.00 0.00 0.00 52 1012.3
20260507150006 57 238 0.0 7.8 0.00 0.00 0.00 53 1012.4
20260507144503 56 181 1.7 7.8 0.00 0.00 0.00 53 1012.6
20260507143005 56 252 0.9 7.8 0.00 0.00 0.00 52 1012.6
20260507141601 56 284 1.7 6.1 0.00 0.00 0.00 56 1012.9
20260507140106 55 213 0.9 8.7 0.00 0.00 0.00 58 1013.0
20260507134552 55 225 0.0 2.6 0.00 0.02 0.00 61 1013.3
20260507133050 54 348 0.0 0.0 0.00 0.02 0.00 65 1013.4
20260507131546 52 350 0.0 0.0 0.00 0.02 0.00 68 1013.4
20260507130050 49 355 0.0 0.0 0.00 0.02 0.00 73 1013.5
20260507124548 47 355 0.0 0.0 0.00 0.05 0.00 79 1013.5
20260507123031 44 355 0.0 0.0 0.00 0.05 0.00 81 1013.6
20260507121527 42 355 0.0 0.0 0.00 0.05 0.00 83 1013.6
20260507120025 41 355 0.0 0.0 0.00 0.05 0.00 87 1013.6
20260507114523 39 355 0.0 0.0 0.00 0.06 0.00 89 1013.8
20260507113019 37 355 0.0 0.0 0.00 0.06 0.00 89 1013.7
20260507111517 35 355 0.0 0.0 0.00 0.06 0.00 88 1013.5
20260507110025 34 290 0.0 0.0 0.00 0.06 0.00 87 1013.5
20260507104509 33 290 0.0 0.0 0.00 0.14 0.00 86 1013.4
20260507103006 33 290 0.0 0.0 0.00 0.14 0.00 86 1013.3
20260507101507 33 290 0.0 0.0 0.00 0.14 0.00 85 1013.1
20260507100004 33 290 0.0 0.0 0.00 0.14 0.00 85 1013.1
20260507094502 33 290 0.0 0.0 0.00 0.21 0.00 85 1013.0
20260507093002 33 290 0.0 0.0 0.00 0.21 0.00 84 1013.0
20260507091559 34 290 0.0 0.0 0.00 0.21 0.00 84 1013.2
20260507090105 34 290 0.0 0.0 0.00 0.21 0.00 84 1013.1
20260507084556 35 290 0.0 0.0 0.00 0.37 0.00 84 1013.1
20260507083054 35 290 0.0 0.0 0.00 0.37 0.00 84 1013.1
20260507081552 36 290 0.0 0.0 0.00 0.37 0.00 83 1013.1
20260507080051 36 290 0.0 0.0 0.00 0.37 0.00 83 1013.2
20260507074604 37 290 0.0 0.0 0.00 0.37 0.00 83 1013.2
20260507073047 37 290 0.0 0.0 0.00 0.37 0.00 82 1013.1
20260507071548 38 290 0.0 0.0 0.00 0.37 0.00 82 1013.1
20260507070054 39 290 0.0 0.0 0.00 0.37 0.00 82 1013.2
20260507064539 40 290 0.0 0.0 0.00 0.39 0.00 81 1013.1
20260507063051 41 290 0.0 0.0 0.00 0.39 0.00 81 1013.2
20260507061534 42 290 0.0 0.0 0.00 0.39 0.00 80 1013.3
20260507060039 43 290 0.0 0.0 0.00 0.39 0.00 79 1013.4
20260507054526 44 290 0.0 0.0 0.00 0.43 0.00 78 1013.4
20260507053024 44 290 0.0 0.0 0.00 0.43 0.00 78 1013.4
20260507051523 45 290 0.0 0.0 0.00 0.43 0.00 79 1013.6
20260507050019 45 290 0.0 0.0 0.00 0.43 0.00 77 1013.8
20260507044519 46 290 0.0 0.0 0.00 0.48 0.00 77 1013.9
20260507043017 46 290 0.0 0.0 0.00 0.48 0.00 77 1013.9
20260507041515 46 290 0.0 0.0 0.00 0.48 0.00 77 1013.8
20260507040013 46 290 0.0 0.0 0.00 0.48 0.00 77 1013.9
20260507034527 46 290 0.0 0.0 0.00 0.48 0.48 76 1013.9
20260507033010 46 290 0.0 0.0 0.00 0.48 0.48 79 1013.5
20260507031512 46 290 0.0 0.0 0.00 0.48 0.48 77 1013.4
20260507030010 46 290 0.0 0.0 0.00 0.48 0.48 78 1013.6
20260507024507 46 290 0.0 0.0 0.00 0.49 0.48 78 1013.4